Terug naar catalogus

BEIDOU 16

ActiefNavigatieGEO
NORAD 38953·PAYLOAD·🇨🇳 China

Gelanceerd Oct 25, 2012 vanaf Xichang Satellite Launch Center

Loading…

TLE

VersSource: Space-Track

Epoch: Sep 14, 2026, 14:12 UTC

1 38953U 12059A   26257.59174108 -.00000182  00000-0  00000-0 0  9994
2 38953   4.6427  72.5064 0006936 324.2570 253.8476  1.00270124 50809

Volg BEIDOU 16 in realtime met AllMySat

Download on the App Store